Weather in Sarov

Russia / Nizhny Novgorod Oblast'     54°55′22″N   43°20′41″E
temp.,
°C
wind,
m/s
gust,
m/s
humid.,
%
clouds,
%
prec.,
mm/h
press.,
hPa
HPBL,
m
17 april, sat
sat1700:00+10e61383100 0.1 1022438
03:00+8ene5128599 0.4 1022346
06:00+7ene512855 0.0 1023355
09:00+12e69675 0.0 1023557
12:00+15e785522 0.0 1022923
15:00+16e79505 0.0 10211242
18:00+13ene712565 0.0 1020813
21:00+9ene614534 0.0 1021478
18 april, sun
sun1800:00+7ene614635 0.0 1020450
03:00+5ene6137551 0.0 1021406
06:00+6ene51273100 0.0 1020477
09:00+8e5963100 0.1 1021613
12:00+7ese3877100 2.3 1022643
15:00+7ene3889100 5.2 1023410
18:00+7se2280100 0.1 102229
21:00+7n2281100 0.1 102316
19 april, mon
mon1900:00+7e61181100 0.0 1023539
03:00+5ene51088100 0.8 1024608
06:00+3ene61188100 1.3 1024572
09:00+3ene61276100 1.7 1025730
12:00+7ene8116099 0.4 10251131
15:00+8e71047100 0.4 10251503
18:00+7e6105595 0.0 10251252
21:00+5e51168100 0.0 1025773
20 april, tue
tue2000:00+4e61379100 0.0 1026737
03:00+4e61378100 0.0 1026725
06:00+4ese61376100 0.0 1026812
09:00+5ese61272100 0.0 1026809
12:00+8ese7116289 0.0 10261050
15:00+10ese71156100 0.0 10241486
18:00+9ese71359100 0.0 10221295
21:00+7ese81658100 0.0 10211186
21 april, wed
wed2100:00+6ese91759100 0.0 10191088
03:00+4ese102184100 3.8 1016868
06:00+4se101989100 2.3 10141020
09:00+4se91889100 4.6 1014905
12:00+5se91889100 0.0 1014947
15:00+6sse91889100 0.1 10141071
18:00+6sse91793100 0.2 10151098
21:00+7s61389100 0.4 1017936